Lapse_Rate
6.5 6.4 6.2 6.0 5.7 5.4 5.4 5.5 5.6 5.3 5.3 5.2 5.2 5.1 5.2 5.2 5.0 4.8 4.7 4.8 4.5 4.2 4.2 4.2 3.9 3.6 3.8 4.0 4.0 4.1 4.1 3.7 3.8 3.7 3.8 4.0 3.8 3.8 3.7 4.1 4.4 4.5 4.0 3.5 3.4 3.7 3.6 4.8 4.7 4.1 4.5 4.1 3.7 3.4
6.2 6.2 6.1 6.1 6.1 6.1 6.0 5.8 5.4 5.4 5.2 5.4 5.1 4.4 4.2 4.1 4.2 4.2 4.3 4.6 4.6 4.1 4.3 4.3 4.1 4.3 3.5 3.9 4.2 4.1 4.2 4.4 4.7 4.6 5.0 4.9 4.5 4.0 4.3 3.9 4.3 3.9 4.3 4.4 4.1 4.7 5.0 4.9 4.6 4.4 4.3 3.9 3.5 3.2
6.1 6.2 6.2 6.0 6.0 6.1 5.9 6.0 6.2 6.0 5.6 5.6 5.5 5.2 5.3 4.9 5.2 4.6 4.5 4.4 4.4 4.5 4.5 4.5 5.1 4.6 4.5 4.3 4.4 4.5 4.5 4.6 4.7 5.2 5.4 5.1 4.8 4.6 4.5 4.5 4.3 4.0 4.2 4.1 4.4 4.5 4.5 4.2 4.3 4.4 4.2 3.6 3.1 2.9
5.9 6.1 6.0 6.0 6.0 5.9 5.9 6.0 6.2 6.2 6.4 6.4 6.1 5.9 6.0 5.9 5.9 5.5 4.8 4.6 4.5 4.6 4.4 4.9 5.1 4.8 4.6 4.5 4.7 5.0 5.3 5.2 5.3 5.2 5.1 4.8 4.6 4.5 4.4 4.5 4.3 4.4 4.4 4.5 4.5 4.6 4.4 4.1 4.1 3.9 3.5 3.1 2.9 2.9
5.5 5.5 5.7 5.9 5.9 5.7 5.7 5.9 6.0 6.1 6.3 6.5 6.8 6.7 6.7 6.4 6.1 5.8 5.8 5.6 5.2 5.9 5.9 5.2 4.8 4.8 5.0 5.0 5.2 5.5 5.6 5.5 5.4 5.0 4.7 4.5 4.5 4.5 4.4 4.3 4.1 4.3 4.3 4.6 4.4 4.2 4.2 4.0 3.8 3.6 3.3 3.1 3.0 3.3
5.1 5.2 5.4 5.6 5.6 5.7 5.5 5.5 5.6 5.9 6.2 6.4 6.5 6.9 7.3 7.2 7.2 7.0 6.7 6.9 6.9 6.4 6.8 6.4 6.4 5.5 5.9 6.0 5.7 5.8 5.8 5.5 5.2 5.0 4.5 4.2 4.2 4.3 4.3 4.1 4.2 4.2 4.3 4.3 4.0 3.9 3.7 3.6 3.7 3.6 3.5 3.2 3.1 3.5
5.4 5.3 5.3 5.2 5.3 5.6 5.7 5.5 5.5 5.7 6.0 6.4 6.5 6.7 6.9 7.4 7.2 6.9 7.3 7.5 7.1 6.8 7.1 6.9 6.7 6.3 6.6 6.2 5.9 5.6 5.4 5.1 4.9 4.3 4.0 4.1 4.0 4.0 4.0 4.1 4.3 4.1 4.0 3.9 3.7 3.6 3.5 3.5 3.7 3.7 3.5 3.4 3.5 3.7
5.7 5.7 5.7 6.0 6.1 6.0 6.0 6.1 6.1 6.3 6.5 6.6 6.8 7.0 7.1 7.1 6.9 7.1 6.7 6.3 6.8 6.6 6.9 7.0 6.9 6.7 6.4 6.0 5.4 5.5 5.0 4.7 4.3 4.1 3.9 3.7 3.7 3.6 3.6 4.0 4.0 3.9 3.9 3.7 3.8 3.8 3.7 3.7 3.8 3.8 3.7 3.8 3.9 3.9
5.7 5.6 5.4 5.4 5.5 5.7 5.7 6.0 6.2 6.4 6.6 6.9 7.1 7.1 7.1 7.2 7.1 6.8 6.4 6.8 7.4 7.4 7.1 6.8 6.7 6.1 6.2 5.8 5.6 5.0 4.6 4.3 4.3 4.0 3.6 3.6 3.3 3.5 3.8 3.8 3.8 3.7 3.8 3.7 3.7 3.8 3.8 3.8 3.7 3.8 4.1 4.2 4.2 4.2
5.7 5.8 5.6 5.5 5.7 5.6 5.8 5.8 5.7 5.9 6.4 6.6 6.3 6.4 6.8 7.1 7.2 6.8 6.9 6.8 6.8 7.0 7.0 6.9 6.8 6.0 5.5 5.8 5.3 4.6 4.4 4.4 4.0 3.7 3.6 3.3 3.4 3.7 3.7 3.6 3.6 3.6 3.7 3.9 4.0 3.9 3.8 3.8 3.8 4.0 4.1 4.2 4.3 4.2
6.2 6.0 5.8 5.7 5.8 6.0 6.1 6.1 6.3 6.5 6.4 6.3 6.5 6.7 6.8 6.8 6.9 7.0 6.9 6.8 6.7 6.4 6.7 6.9 6.3 5.7 5.6 5.2 4.7 4.5 4.5 4.3 4.0 3.3 3.7 3.3 3.5 3.8 3.7 3.7 3.8 3.8 3.7 3.6 3.6 3.6 3.8 4.0 4.1 4.1 4.0 3.9 3.9 3.8
6.1 6.1 6.0 5.8 5.8 5.9 6.1 6.1 6.4 6.6 6.7 6.8 7.3 7.2 7.1 7.0 6.9 6.8 6.9 6.6 6.9 6.7 6.9 7.0 6.4 5.9 5.3 4.9 4.5 4.4 4.3 4.2 3.7 3.1 3.4 3.5 3.6 3.8 3.9 4.0 3.9 3.7 3.5 3.4 3.5 3.5 3.6 3.7 3.8 3.7 3.6 3.5 3.5 3.4
6.8 6.5 6.3 6.1 5.9 6.1 6.3 6.4 6.5 6.7 6.7 7.0 7.1 7.3 7.9 7.6 7.2 6.9 7.4 8.0 7.7 7.6 7.4 7.3 6.8 5.8 5.1 4.8 4.6 4.5 4.2 3.8 3.4 3.2 3.6 3.9 4.2 4.1 4.0 3.8 3.8 3.7 3.7 3.6 3.5 3.5 3.6 3.5 3.4 3.4 3.5 3.5 3.3 3.0
7.3 7.1 7.0 6.9 6.8 7.0 7.4 7.1 6.8 6.9 7.0 7.4 7.1 7.2 7.5 7.9 8.1 8.4 8.0 8.3 7.7 7.2 7.2 6.9 6.3 5.7 5.0 4.9 4.6 4.4 3.9 3.6 3.2 3.6 4.3 4.5 4.3 4.1 4.1 4.2 4.3 4.1 4.0 3.9 3.9 3.9 3.8 3.6 3.4 3.3 3.3 3.1 2.9 3.1
7.6 7.5 7.9 7.8 8.2 8.1 7.9 7.6 7.6 7.6 7.4 8.0 7.8 7.9 7.9 8.1 8.3 8.4 8.7 7.4 7.0 7.1 6.7 6.1 5.6 5.3 5.1 4.8 4.6 4.2 3.9 3.9 4.1 4.7 4.7 4.6 4.6 4.7 4.8 4.8 4.7 4.6 4.5 4.4 4.3 4.1 3.8 3.6 3.3 3.0 3.1 3.2 3.3 3.4
8.4 8.5 8.4 8.3 7.8 7.5 7.6 7.6 7.4 7.2 7.5 7.9 7.7 7.5 8.0 7.6 7.7 7.8 7.6 7.1 6.7 6.2 5.9 5.4 5.3 5.0 4.8 4.7 4.6 4.6 4.6 5.0 5.0 5.0 5.2 5.3 5.3 5.4 5.4 5.3 5.3 5.3 5.0 4.7 4.4 4.1 3.8 3.6 3.3 3.0 3.3 3.5 3.6 3.5
8.4 8.5 8.3 8.2 8.3 8.0 8.2 8.1 7.5 7.1 7.2 7.5 7.3 7.5 7.6 7.8 7.6 7.7 7.1 6.5 6.0 5.7 5.5 5.4 5.3 5.1 4.7 5.0 5.1 5.4 5.3 5.4 5.7 5.8 5.7 5.8 5.8 5.8 5.8 5.8 5.7 5.5 5.2 4.8 4.4 4.0 3.9 3.6 3.2 3.3 3.6 3.8 3.8 3.7
8.6 8.5 8.4 8.3 8.1 8.2 8.0 7.8 7.8 7.9 7.2 7.1 7.2 7.4 7.5 7.3 7.2 6.8 6.1 5.8 5.6 5.3 5.2 5.3 5.0 5.2 5.4 5.5 5.4 5.6 5.9 6.0 6.1 6.2 6.2 6.2 6.2 6.1 6.1 6.0 5.9 5.7 5.3 4.9 4.4 4.2 4.0 3.6 3.3 3.5 3.8 3.9 3.9 3.9
8.5 8.4 8.4 8.3 8.0 8.0 7.7 7.7 7.7 7.7 7.7 7.6 7.1 6.9 6.4 6.3 6.0 5.6 5.3 5.1 5.0 5.1 5.0 5.4 5.5 5.6 5.7 5.9 6.1 6.2 6.3 6.4 6.4 6.5 6.4 6.5 6.5 6.4 6.4 6.2 6.1 5.8 5.5 5.1 4.6 4.3 4.1 3.7 3.5 3.6 3.9 3.9 3.9 3.9
8.4 8.5 8.6 8.4 7.8 7.8 7.8 7.8 7.7 7.4 6.8 6.4 6.2 5.8 5.6 5.6 5.4 5.1 5.0 5.0 5.1 5.4 5.6 5.7 5.8 6.1 6.3 6.3 6.4 6.5 6.5 6.5 6.5 6.6 6.6 6.7 6.7 6.6 6.5 6.3 6.2 6.0 5.8 5.4 4.9 4.4 4.2 4.0 3.7 3.7 3.9 4.0 3.8 3.8
8.5 8.4 8.4 8.4 8.0 8.0 7.8 7.6 7.3 6.7 6.1 5.8 5.4 5.2 5.1 4.9 5.0 5.1 5.2 5.3 5.5 5.8 5.9 6.3 6.4 6.5 6.6 6.6 6.6 6.6 6.6 6.7 6.7 6.7 6.7 6.7 6.6 6.6 6.6 6.5 6.3 6.1 5.9 5.6 5.3 4.9 4.4 4.2 3.9 3.8 4.0 4.1 4.2 4.0
8.2 7.8 7.8 7.9 8.0 8.0 7.5 7.3 6.9 6.4 5.6 5.1 5.0 5.1 5.0 5.1 5.2 5.2 5.5 5.8 6.1 6.3 6.4 6.6 6.7 6.7 6.7 6.7 6.7 6.7 6.7 6.7 6.7 6.7 6.6 6.6 6.6 6.6 6.6 6.6 6.5 6.4 6.1 5.9 5.6 5.2 4.9 4.6 4.3 4.1 4.1 4.2 4.3 4.2
7.5 7.4 7.4 7.4 7.3 7.0 6.4 6.6 6.4 5.8 5.2 4.9 5.1 5.1 5.2 5.4 5.7 6.0 6.2 6.3 6.5 6.7 6.7 6.7 6.8 6.8 6.7 6.7 6.7 6.8 6.7 6.7 6.7 6.7 6.6 6.6 6.6 6.6 6.6 6.6 6.6 6.5 6.3 6.1 5.8 5.6 5.3 5.0 4.7 4.4 4.3 4.3 4.3 4.4
6.8 7.1 6.7 6.5 6.2 5.8 5.8 5.8 5.6 5.3 5.2 5.4 5.6 5.6 5.8 6.1 6.3 6.5 6.6 6.7 6.8 6.8 6.8 6.8 6.8 6.7 6.8 6.8 6.8 6.8 6.8 6.7 6.7 6.7 6.7 6.7 6.7 6.6 6.6 6.6 6.6 6.6 6.5 6.4 6.1 5.9 5.7 5.4 5.2 5.0 4.7 4.6 4.5 4.5
6.7 6.2 6.0 5.8 5.6 5.4 5.2 5.2 5.5 5.7 5.7 6.0 6.2 6.3 6.4 6.8 6.8 6.9 6.9 6.9 6.9 6.9 6.9 6.9 6.9 6.9 7.0 7.0 6.9 6.9 6.9 6.9 6.9 6.9 6.8 6.8 6.7 6.7 6.7 6.7 6.7 6.7 6.6 6.6 6.5 6.2 6.0 5.8 5.6 5.3 5.1 5.0 4.9 4.8
5.8 5.7 5.7 5.6 5.7 5.7 5.7 5.9 6.1 6.4 6.7 6.7 6.7 6.8 7.0 7.1 7.1 7.1 7.1 7.1 7.1 7.0 7.0 7.1 7.1 7.1 7.1 7.1 7.1 7.1 7.0 7.0 6.9 6.9 6.8 6.8 6.8 6.8 6.8 6.8 6.7 6.7 6.6 6.7 6.7 6.5 6.4 6.2 6.0 5.7 5.5 5.3 5.2 5.2
5.4 5.7 6.0 6.2 6.4 6.5 6.5 6.8 7.0 7.0 6.9 6.9 7.1 7.3 7.2 7.2 7.3 7.3 7.3 7.4 7.3 7.4 7.4 7.4 7.4 7.4 7.4 7.3 7.3 7.2 7.1 7.0 7.0 7.0 6.9 6.9 6.9 6.9 6.9 6.8 6.8 6.8 6.8 6.7 6.7 6.6 6.6 6.5 6.3 6.2 5.9 5.7 5.5 5.4
6.2 6.4 6.7 6.8 7.0 7.2 7.2 7.4 7.3 7.3 7.4 7.4 7.4 7.4 7.3 7.5 7.5 7.6 7.6 7.5 7.5 7.5 7.6 7.6 7.6 7.6 7.5 7.4 7.3 7.2 7.2 7.2 7.2 7.1 7.1 7.1 7.1 7.0 7.0 7.0 6.9 6.9 6.8 6.8 6.7 6.7 6.6 6.6 6.5 6.4 6.3 6.1 6.0 5.9
7.0 7.2 7.3 7.4 7.4 7.2 7.2 7.2 7.2 7.2 7.4 7.5 7.4 7.3 7.2 7.3 7.4 7.5 7.6 7.7 7.8 7.8 7.8 7.8 7.7 7.7 7.6 7.4 7.3 7.2 7.3 7.3 7.3 7.3 7.2 7.2 7.2 7.2 7.1 7.1 7.0 7.0 6.9 6.8 6.8 6.7 6.6 6.6 6.5 6.4 6.3 6.3 6.2 6.2
7.3 7.4 7.4 7.4 7.2 7.1 7.2 7.3 7.4 7.4 7.4 7.4 7.5 7.6 7.7 7.7 7.7 7.8 7.8 7.9 7.9 7.9 7.8 7.8 7.7 7.5 7.4 7.4 7.4 7.4 7.5 7.5 7.5 7.4 7.4 7.3 7.3 7.3 7.3 7.2 7.1 7.0 6.9 6.9 6.9 6.8 6.7 6.7 6.7 6.6 6.5 6.4 6.4 6.4
7.3 7.4 7.4 7.3 7.3 7.4 7.5 7.6 7.6 7.6 7.6 7.6 7.6 7.6 7.6 7.6 7.6 7.6 7.7 7.7 7.8 7.9 7.9 7.9 7.9 7.8 7.7 7.6 7.6 7.6 7.6 7.6 7.6 7.5 7.5 7.4 7.4 7.4 7.3 7.3 7.2 7.1 7.1 7.0 6.9 6.8 6.8 6.7 6.6 6.5 6.5 6.5 6.6 6.5
7.6 7.6 7.7 7.7 7.7 7.8 7.8 7.7 7.6 7.5 7.4 7.4 7.4 7.4 7.4 7.4 7.2 7.2 7.3 7.5 7.6 7.7 7.7 7.7 7.6 7.6 7.4 7.5 7.5 7.5 7.4 7.2 7.0 7.1 7.1 7.1 7.1 7.1 7.0 7.0 7.0 7.0 7.0 6.9 6.8 6.7 6.6 6.6 6.5 6.5 6.5 6.4 6.5 6.5
7.9 7.9 7.9 7.9 7.9 7.9 7.8 7.7 7.6 7.5 7.5 7.4 7.3 7.1 7.0 7.0 6.8 6.9 7.0 7.1 7.1 7.1 7.1 7.1 7.1 7.0 6.9 7.0 7.1 7.0 7.0 6.8 6.9 7.0 7.0 7.0 7.0 7.0 6.9 6.8 6.8 6.9 6.9 6.7 6.6 6.5 6.5 6.4 6.4 6.4 6.4 6.4 6.4 6.4
Wind_Speed
26 26 25 24 24 25 24 24 24 24 23 24 25 26 27 27 28 15 8 13 9 4 12 8 7 9 2 3 4 4 3 3 3 5 5 5 5 7 2 4 7 9 8 5 6 5 12 9 6 9 4 2 5 4
25 25 26 27 26 25 24 23 22 22 24 23 22 23 23 25 27 26 7 8 9 8 6 2 10 20 22 20 6 7 4 6 6 4 5 3 4 3 4 4 0 4 6 5 10 5 2 12 2 2 3 5 3 5
26 26 26 26 26 25 25 25 23 20 18 21 23 23 23 24 24 19 8 5 4 5 7 11 10 3 3 2 3 6 3 5 5 3 4 4 5 4 6 6 4 3 2 3 1 3 4 5 4 5 3 4 5 4
27 26 26 27 27 27 25 26 25 24 22 21 21 22 21 22 22 20 9 6 5 2 3 4 2 2 4 3 1 1 2 3 3 4 3 3 3 5 3 1 6 3 9 5 2 3 4 3 4 6 6 7 6 4
29 28 27 27 27 27 27 26 26 25 24 24 23 22 22 21 20 13 8 7 9 6 3 2 3 1 4 1 2 1 2 3 2 3 3 3 1 2 1 1 3 4 5 6 5 6 3 3 8 8 8 5 5 3
31 30 29 28 27 26 26 26 26 26 24 25 24 24 22 22 20 1 3 4 9 8 2 2 3 3 4 5 8 8 4 3 1 1 1 1 2 1 3 3 2 3 5 3 3 4 5 9 6 3 5 3 2 3
34 31 29 29 28 27 25 25 25 25 25 25 25 24 24 23 10 4 3 2 8 4 3 2 2 1 2 3 2 2 4 3 2 1 1 1 1 3 1 3 4 6 7 7 6 7 6 1 3 3 5 4 3 2
32 32 30 29 29 29 28 25 24 24 24 24 26 24 31 7 9 0 3 8 5 4 2 3 0 1 2 2 2 2 2 2 4 2 1 2 1 1 3 4 7 7 7 6 6 5 4 5 4 4 3 3 3 3
28 28 29 29 29 28 28 28 25 21 21 24 31 2 3 2 2 1 13 14 5 3 3 3 5 3 0 2 2 1 1 2 2 2 2 2 1 3 1 7 8 5 4 6 3 5 5 5 4 2 2 3 2 4
27 27 26 27 29 29 28 26 25 24 19 11 3 2 3 2 16 8 3 2 2 3 3 2 2 3 1 1 2 2 2 1 1 2 1 1 2 1 2 2 5 6 7 6 4 2 2 1 1 1 2 2 3 4
30 30 28 28 27 24 29 26 22 23 17 1 3 3 1 7 2 2 2 3 0 2 2 1 2 3 2 2 2 1 2 1 1 3 2 2 3 2 3 4 3 4 5 4 4 3 4 4 4 3 4 4 4 4
30 28 27 29 28 25 25 25 19 8 1 1 4 4 2 1 1 3 2 0 2 4 1 3 2 2 1 1 3 0 2 1 2 1 2 2 3 2 4 4 3 3 5 4 2 4 3 4 4 4 4 4 4 4
27 27 26 27 24 26 24 22 18 20 14 2 2 3 4 1 3 5 8 3 2 4 4 3 3 2 2 2 3 2 3 2 1 2 3 4 2 2 4 3 2 0 2 4 2 1 2 2 1 4 4 5 4 6
24 24 23 24 23 24 22 19 17 8 3 3 5 5 5 5 4 3 3 2 2 3 7 4 3 2 2 3 1 4 1 2 2 1 4 3 4 4 5 2 4 5 4 4 3 3 3 4 4 4 5 4 3 6
20 21 23 22 20 19 15 9 6 2 1 3 2 4 2 2 2 0 1 2 2 5 4 4 4 2 2 4 2 4 2 2 5 4 3 3 3 5 5 4 4 4 4 4 2 3 4 4 3 5 5 4 4 6
19 19 8 9 7 8 10 12 5 2 3 3 5 4 3 3 2 2 3 4 2 2 2 2 3 3 2 3 3 4 6 5 3 3 3 2 3 4 4 4 4 3 4 4 3 3 3 3 4 5 6 5 4 5
17 2 3 16 20 21 17 4 3 6 4 4 4 3 2 3 2 2 2 1 0 1 2 2 3 2 3 2 1 3 4 3 3 2 2 4 5 5 5 4 3 4 4 3 2 3 4 1 1 2 5 4 4 5
1 2 4 18 7 6 3 4 4 5 7 4 3 3 2 4 3 3 1 2 1 1 0 1 4 3 4 4 3 3 2 1 0 2 3 3 3 3 4 5 4 4 3 3 4 3 2 1 2 3 4 4 5 4
12 11 15 13 9 5 3 4 3 4 4 2 2 3 3 2 5 4 3 4 2 2 3 1 3 2 2 2 2 2 2 2 3 2 2 2 4 5 5 3 3 3 3 3 3 3 3 4 3 3 3 1 2 3
20 19 20 23 9 3 5 3 3 4 3 2 3 3 2 2 2 2 3 3 2 1 3 2 2 2 3 2 3 2 2 3 4 2 0 1 2 4 4 4 3 3 3 2 3 5 2 2 2 3 3 3 2 2
7 6 14 7 4 6 4 2 4 3 2 3 1 2 2 1 2 2 3 4 3 1 0 2 2 2 2 2 1 2 4 4 3 3 3 2 2 3 2 3 3 2 2 2 2 2 1 1 2 2 1 2 2 2
2 11 3 6 4 5 4 4 3 2 2 2 1 2 2 2 2 2 3 3 1 2 2 2 2 2 1 1 0 2 4 4 3 1 6 5 3 3 2 3 3 3 3 3 2 2 2 2 2 3 2 2 2 1
6 5 4 5 6 6 2 2 4 4 3 2 2 2 2 2 2 2 1 2 2 0 0 1 2 1 3 1 1 3 1 4 2 2 1 3 2 3 3 3 4 3 3 3 2 2 2 5 4 1 1 1 1 2
8 4 5 5 5 3 1 4 2 2 2 2 2 2 3 2 3 3 2 2 2 1 0 2 3 3 2 2 1 2 3 2 1 1 2 3 2 2 3 3 3 3 3 2 2 2 2 2 4 1 1 1 2 3
7 9 5 6 3 4 5 3 3 3 3 4 2 3 4 3 3 3 2 3 2 2 2 2 1 1 2 2 1 3 5 5 4 4 3 4 2 1 1 2 3 3 3 3 3 3 3 2 2 2 2 2 5 5
8 7 6 7 4 4 3 3 4 2 2 4 2 3 3 2 4 2 3 2 2 3 4 6 5 3 3 4 2 2 4 5 4 3 2 6 6 5 4 4 3 3 5 6 4 4 4 3 3 4 3 7 11 1
7 5 3 4 3 2 4 3 3 4 4 4 3 4 3 4 3 3 2 2 2 2 2 3 5 5 3 2 2 2 2 6 4 2 1 4 5 6 6 5 7 4 4 6 6 6 5 5 5 5 5 4 5 5
2 4 4 6 4 3 3 3 4 2 3 2 1 3 2 4 3 3 3 2 3 2 1 0 0 2 2 2 2 3 3 3 3 1 0 2 3 4 6 5 5 12 5 6 6 5 6 7 7 7 7 7 6 4
4 4 2 6 4 5 3 2 2 2 1 2 1 3 3 3 3 2 2 2 1 2 1 1 1 1 2 2 2 2 3 5 6 5 5 4 2 3 6 6 5 5 2 5 13 13 13 10 10 9 8 6 4 3
5 3 3 3 4 3 3 3 3 2 2 2 2 3 3 3 3 0 1 1 1 3 2 2 1 3 2 3 2 3 3 4 5 5 4 4 3 1 3 4 5 5 5 5 5 5 13 7 7 2 2 2 3 3
2 2 3 2 1 3 3 2 2 2 1 2 1 2 3 4 4 1 1 1 1 1 0 2 2 3 3 3 3 2 3 4 9 10 8 5 3 3 3 3 3 4 4 5 5 5 5 5 3 4 5 6 7 8
4 3 2 4 4 3 3 3 2 1 2 2 2 1 3 3 3 2 2 1 2 2 5 4 2 3 4 5 3 4 11 2 3 5 7 5 5 5 5 4 4 4 5 6 6 6 7 8 6 7 7 8 8 8
2 1 1 2 4 5 3 4 4 5 2 2 2 1 1 1 4 3 1 0 2 4 4 4 4 4 4 4 4 4 6 2 6 11 12 13 13 11 6 6 6 7 9 8 7 7 9 11 9 10 10 10 10 9
Wind_Direction
306 304 302 299 294 288 284 282 279 277 275 275 275 269 259 247 235 227 232 205 220 235 255 236 210 225 209 187 197 144 102 183 168 194 204 205 219 211 172 186 178 173 180 195 210 226 259 143 110 176 193 11 133 142
303 304 304 304 302 301 301 300 294 287 284 276 272 271 270 265 246 226 242 205 205 237 259 207 255 245 240 249 247 186 203 157 179 182 201 208 208 186 185 236 351 212 202 182 196 213 269 157 152 160 147 132 143 142
302 302 302 303 301 303 304 303 300 299 298 297 291 281 275 270 265 234 231 197 192 233 273 263 250 168 58 15 287 231 205 173 198 164 166 199 224 164 185 220 171 233 155 215 160 169 176 160 132 146 143 135 131 128
296 297 298 298 299 299 299 299 299 300 299 298 295 293 290 284 273 263 237 197 197 142 238 233 93 54 334 336 275 219 152 133 138 170 189 197 203 189 219 270 198 134 146 172 241 141 109 207 181 152 121 112 111 111
294 294 294 294 294 295 295 296 298 296 297 295 296 294 292 286 280 273 253 209 181 191 220 231 107 57 9 277 204 169 178 150 160 172 204 213 96 136 59 35 212 197 169 184 220 160 140 148 136 140 133 127 118 117
292 289 290 291 293 294 296 297 297 297 298 301 298 295 293 295 281 189 283 210 190 188 187 239 42 25 37 46 59 47 46 41 48 124 122 72 29 274 191 224 85 69 64 10 150 91 92 106 93 68 116 113 99 114
287 287 287 288 288 289 290 291 294 296 297 296 297 299 296 293 284 205 215 201 150 106 134 242 252 92 360 67 42 39 35 51 40 64 59 82 59 356 258 240 112 102 94 77 72 93 87 114 147 75 89 61 38 73
292 287 289 290 289 287 284 284 288 290 293 297 299 297 301 282 107 181 357 141 98 99 149 213 258 210 354 102 79 335 78 75 32 85 33 40 65 16 257 104 117 110 94 69 47 50 111 112 82 48 40 36 56 28
288 291 293 293 292 289 285 284 281 284 290 293 295 288 80 54 170 111 100 70 54 80 185 145 158 198 325 85 110 75 40 74 356 67 64 317 11 227 88 167 162 167 170 156 86 77 77 100 105 67 60 28 72 305
284 290 292 293 295 294 292 286 284 281 278 303 0 259 208 285 137 128 46 125 27 10 24 100 135 131 48 105 70 101 43 105 103 280 335 74 258 235 233 256 137 149 137 134 95 68 76 63 161 265 211 239 232 246
279 284 288 293 292 287 290 288 281 282 287 154 212 185 184 93 51 15 129 144 131 356 35 96 98 129 334 131 125 350 125 154 126 266 127 315 276 220 154 134 122 127 129 122 126 133 150 151 180 212 284 254 257 271
277 281 285 288 293 287 281 282 276 274 225 76 119 84 89 187 142 180 168 318 185 201 120 119 110 100 96 90 106 95 104 64 214 169 73 282 250 217 166 167 173 145 131 121 137 156 188 195 205 209 248 265 259 266
278 282 282 286 287 290 279 277 265 274 124 136 86 136 156 160 216 217 200 240 182 167 165 153 116 114 119 77 79 110 97 178 18 47 238 230 250 246 189 154 136 101 120 118 114 212 174 227 225 199 256 250 266 287
284 283 284 285 291 281 271 271 262 199 200 152 177 190 193 183 231 179 155 166 228 109 128 113 98 104 113 80 109 97 66 100 54 344 239 250 228 204 175 189 130 196 191 183 204 230 245 242 260 259 248 255 271 287
287 287 289 287 275 273 283 309 348 97 231 173 241 201 93 137 61 123 64 53 31 135 117 110 85 89 81 101 64 113 89 233 205 229 228 231 226 157 167 177 174 173 188 209 197 206 237 235 240 282 270 269 252 275
299 298 277 304 60 79 87 83 46 68 50 53 45 73 74 65 13 9 96 107 36 133 108 75 104 88 84 120 134 196 138 216 237 215 221 141 162 170 173 192 199 177 180 202 203 213 234 223 234 257 300 287 273 261
287 206 104 112 97 75 57 74 53 48 64 42 32 17 27 80 108 70 53 69 319 307 73 113 98 105 113 82 168 192 199 216 194 222 185 168 166 186 187 170 168 171 188 207 217 224 237 223 175 340 316 301 305 278
250 222 227 145 110 66 53 38 73 60 59 22 51 3 9 24 58 61 69 16 354 68 25 112 123 131 158 150 239 223 202 225 210 136 155 162 177 166 159 162 167 174 187 208 213 235 209 217 256 257 251 270 302 315
53 52 90 94 85 92 71 44 44 82 58 57 55 20 31 40 39 50 53 39 44 43 106 63 81 131 208 209 178 202 193 171 164 180 171 214 162 158 165 144 145 157 180 200 201 229 235 225 224 244 255 248 264 285
69 59 62 57 64 74 64 27 49 72 58 44 29 21 37 34 11 18 26 16 18 22 40 51 180 214 176 225 197 164 143 135 120 91 359 231 184 146 174 170 183 181 187 232 247 252 239 266 242 224 230 232 239 271
37 29 33 47 51 58 85 40 53 71 99 70 320 30 60 19 16 9 5 343 36 68 38 226 220 266 291 283 238 112 116 136 167 162 179 167 183 181 176 193 178 170 178 206 202 272 91 221 248 266 298 282 268 234
32 37 53 35 71 50 72 22 83 82 72 91 54 27 46 22 4 4 318 20 253 245 196 171 200 165 112 93 357 74 154 122 114 103 145 133 127 181 197 192 178 202 202 208 194 209 231 247 262 243 238 269 29 331
49 47 45 38 69 48 9 355 62 19 62 43 28 41 24 4 307 335 302 226 259 308 147 121 149 111 111 314 86 54 130 130 136 159 195 147 159 172 176 190 187 181 204 220 201 209 217 259 292 35 357 1 271 269
39 52 47 48 46 66 2 34 47 53 64 46 46 37 349 300 329 40 258 270 261 269 90 180 136 84 37 34 208 213 194 157 160 219 182 149 168 221 185 189 194 200 193 182 186 198 213 239 261 75 218 237 257 256
63 2 40 22 25 49 41 32 19 38 62 24 59 343 329 357 20 3 279 277 285 245 207 171 177 170 165 212 245 221 177 181 189 207 212 189 153 117 228 213 222 219 181 182 208 210 222 219 233 228 247 257 263 261
65 23 41 12 12 44 7 49 22 14 57 24 337 277 10 59 40 308 255 241 241 209 188 192 187 195 236 214 198 190 205 185 166 206 230 195 198 195 202 204 218 241 202 203 190 198 214 216 222 238 249 272 282 25
47 356 11 34 338 9 33 27 31 69 49 19 312 354 31 45 300 264 283 229 230 232 224 189 188 198 207 188 198 184 137 164 173 190 169 190 204 205 199 202 214 223 175 185 190 186 200 216 229 235 242 247 236 240
94 47 16 326 37 9 99 42 40 28 292 281 316 357 136 198 251 246 222 240 228 310 337 2 178 183 185 217 178 129 110 115 117 122 254 246 218 213 216 221 217 231 190 192 192 188 200 214 228 235 233 238 250 227
30 335 68 16 15 43 64 103 268 259 245 143 171 277 261 232 241 233 263 215 144 120 121 165 314 50 74 56 64 113 138 161 166 199 236 251 260 245 205 209 208 222 207 199 232 208 208 217 229 235 235 233 238 237
324 354 68 22 61 8 261 183 239 250 236 226 270 301 280 272 255 207 121 85 172 235 242 216 183 180 194 185 215 228 213 209 215 218 235 243 228 161 163 189 203 207 207 204 226 257 271 291 330 4 147 204 217 228
319 30 58 42 223 248 234 267 298 253 312 269 259 208 266 302 312 9 305 289 262 321 333 272 249 216 217 218 216 250 274 213 218 227 237 253 250 222 207 199 193 183 190 200 207 215 226 251 244 244 242 237 238 254
2 51 48 1 307 284 19 28 311 321 307 346 285 284 311 332 305 306 348 48 16 314 279 275 240 269 218 240 242 236 262 262 193 214 222 239 251 230 216 206 183 190 197 204 210 215 217 227 239 238 242 246 245 240
13 12 298 345 330 348 344 354 2 336 344 317 292 263 241 215 267 295 314 184 266 298 316 310 310 296 257 249 252 271 294 285 279 275 253 243 231 221 208 203 200 203 209 214 217 218 223 229 235 240 241 241 243 244